Time,TemperatureF,DewpointF,PressureIn,WindDirection,WindDirectionDegrees,WindSpeedMPH,WindSpeedGustMPH,Humidity,HourlyPrecipIn,Conditions,Clouds,dailyrainin,SoftwareType,DateUTC
2013-03-31 00:03:00,58.0,-99.9,30.19,SSW,207,0.0,0.0,89,0.00,,,0.00,,2013-03-31 04:03:00,
2013-03-31 00:13:00,58.0,55.0,30.19,SSW,207,0.0,0.0,89,0.00,,,0.00,,2013-03-31 04:13:00,
2013-03-31 00:23:00,58.0,55.0,30.19,SSW,195,0.0,0.0,90,0.00,,,0.00,,2013-03-31 04:23:00,
2013-03-31 00:33:00,58.0,55.0,30.18,SSW,195,0.0,0.0,90,0.00,,,0.00,,2013-03-31 04:33:00,
2013-03-31 00:42:00,58.0,55.0,30.18,SSW,195,0.0,0.0,90,0.00,,,0.00,,2013-03-31 04:42:00,
2013-03-31 00:53:00,58.0,55.0,30.18,SSW,195,0.0,0.0,91,0.00,,,0.00,,2013-03-31 04:53:00,
2013-03-31 01:02:00,57.0,54.0,30.18,SSW,195,0.0,0.0,91,0.00,,,0.00,,2013-03-31 05:02:00,
2013-03-31 01:13:00,57.0,54.0,30.18,SSW,195,0.0,0.0,91,0.00,,,0.00,,2013-03-31 05:13:00,
2013-03-31 01:22:00,57.0,54.0,30.18,SSW,195,0.0,0.0,91,0.00,,,0.00,,2013-03-31 05:22:00,
2013-03-31 01:32:00,57.0,55.0,30.17,SSW,194,0.0,0.0,92,0.00,,,0.00,,2013-03-31 05:32:00,
2013-03-31 01:42:00,57.0,55.0,30.17,SSW,194,0.0,0.0,92,0.00,,,0.00,,2013-03-31 05:42:00,
2013-03-31 01:53:00,57.0,55.0,30.17,South,187,0.0,0.0,92,0.00,,,0.00,,2013-03-31 05:53:00,
2013-03-31 02:02:00,57.0,55.0,30.17,South,187,0.0,0.0,92,0.00,,,0.00,,2013-03-31 06:02:00,
2013-03-31 02:12:00,57.0,55.0,30.17,South,187,0.0,0.0,92,0.00,,,0.00,,2013-03-31 06:12:00,
2013-03-31 02:23:00,57.0,55.0,30.17,South,187,0.0,0.0,93,0.00,,,0.00,,2013-03-31 06:23:00,
2013-03-31 02:32:00,57.0,55.0,30.16,South,187,0.0,0.0,93,0.00,,,0.00,,2013-03-31 06:32:00,
2013-03-31 02:42:00,57.0,55.0,30.16,South,187,0.0,0.0,93,0.00,,,0.00,,2013-03-31 06:42:00,
2013-03-31 02:53:00,57.0,55.0,30.16,South,187,0.0,0.0,94,0.00,,,0.00,,2013-03-31 06:53:00,
2013-03-31 03:02:00,57.0,55.0,30.16,South,187,0.0,0.0,94,0.00,,,0.00,,2013-03-31 07:02:00,
2013-03-31 03:12:00,57.0,55.0,30.16,South,187,0.0,0.0,94,0.00,,,0.00,,2013-03-31 07:12:00,
2013-03-31 03:22:00,58.0,56.0,30.16,South,187,0.0,0.0,94,0.00,,,0.00,,2013-03-31 07:22:00,
2013-03-31 03:33:00,58.0,56.0,30.16,South,187,0.0,0.0,94,0.00,,,0.00,,2013-03-31 07:33:00,
2013-03-31 03:43:00,58.0,56.0,30.16,South,187,0.0,0.0,94,0.00,,,0.00,,2013-03-31 07:43:00,
2013-03-31 03:53:00,58.0,56.0,30.15,South,187,0.0,0.0,94,0.00,,,0.00,,2013-03-31 07:53:00,
2013-03-31 04:02:00,58.0,56.0,30.14,SSE,167,0.0,0.0,94,0.00,,,0.00,,2013-03-31 08:02:00,
2013-03-31 04:12:00,58.0,56.0,30.14,SSE,167,0.0,0.0,94,0.00,,,0.00,,2013-03-31 08:12:00,
2013-03-31 04:22:00,58.0,56.0,30.14,SSW,210,0.0,0.0,94,0.00,,,0.00,,2013-03-31 08:22:00,
2013-03-31 04:32:00,58.0,56.0,30.14,SSW,209,0.0,0.0,93,0.00,,,0.00,,2013-03-31 08:32:00,
2013-03-31 04:42:00,58.0,56.0,30.14,SSW,209,0.0,0.0,93,0.00,,,0.00,,2013-03-31 08:42:00,
2013-03-31 04:52:00,58.0,56.0,30.14,SSW,210,0.0,0.0,93,0.00,,,0.00,,2013-03-31 08:52:00,
2013-03-31 05:02:00,58.0,56.0,30.13,SSE,152,0.0,1.0,93,0.00,,,0.00,,2013-03-31 09:02:00,
2013-03-31 05:12:00,58.0,56.0,30.13,SSE,152,0.0,1.0,93,0.00,,,0.00,,2013-03-31 09:12:00,
2013-03-31 05:22:00,58.0,56.0,30.13,ESE,114,0.0,1.0,92,0.00,,,0.00,,2013-03-31 09:22:00,
2013-03-31 05:33:00,58.0,56.0,30.13,ESE,114,0.0,0.0,92,0.00,,,0.00,,2013-03-31 09:33:00,
2013-03-31 05:42:00,58.0,56.0,30.13,ESE,114,0.0,0.0,92,0.00,,,0.00,,2013-03-31 09:42:00,
2013-03-31 05:53:00,58.0,55.0,30.13,East,91,0.0,1.0,91,0.00,,,0.00,,2013-03-31 09:53:00,
2013-03-31 06:03:00,57.0,54.0,30.14,East,91,0.0,0.0,90,0.00,,,0.00,,2013-03-31 10:03:00,
2013-03-31 06:13:00,57.0,54.0,30.14,East,91,0.0,0.0,90,0.00,,,0.00,,2013-03-31 10:13:00,
2013-03-31 06:24:00,57.0,54.0,30.14,East,91,0.0,0.0,91,0.00,,,0.00,,2013-03-31 10:24:00,
2013-03-31 06:33:00,57.0,55.0,30.14,East,91,0.0,0.0,92,0.00,,,0.00,,2013-03-31 10:33:00,
2013-03-31 06:42:00,57.0,55.0,30.14,East,91,0.0,0.0,92,0.00,,,0.00,,2013-03-31 10:42:00,
2013-03-31 06:53:00,56.0,54.0,30.15,East,90,0.0,0.0,92,0.00,,,0.00,,2013-03-31 10:53:00,
2013-03-31 07:02:00,55.0,53.0,30.15,East,90,0.0,0.0,92,0.00,,,0.00,,2013-03-31 11:02:00,
2013-03-31 07:12:00,55.0,53.0,30.15,East,90,0.0,0.0,92,0.00,,,0.00,,2013-03-31 11:12:00,
2013-03-31 07:23:00,55.0,53.0,30.16,East,91,0.0,0.0,93,0.00,,,0.00,,2013-03-31 11:23:00,
2013-03-31 07:32:00,54.0,52.0,30.16,East,90,0.0,0.0,93,0.00,,,0.00,,2013-03-31 11:32:00,
2013-03-31 07:42:00,54.0,52.0,30.16,East,90,0.0,0.0,93,0.00,,,0.00,,2013-03-31 11:42:00,
2013-03-31 07:53:00,54.0,52.0,30.17,East,91,0.0,0.0,93,0.00,,,0.00,,2013-03-31 11:53:00,
2013-03-31 08:03:00,54.0,52.0,30.17,East,91,0.0,0.0,94,0.00,,,0.00,,2013-03-31 12:03:00,
2013-03-31 08:12:00,54.0,52.0,30.17,East,91,0.0,0.0,94,0.00,,,0.00,,2013-03-31 12:12:00,
2013-03-31 08:22:00,55.0,53.0,30.17,East,90,0.0,0.0,94,0.00,,,0.00,,2013-03-31 12:22:00,
2013-03-31 08:33:00,55.0,53.0,30.17,East,90,0.0,0.0,94,0.00,,,0.00,,2013-03-31 12:33:00,
2013-03-31 08:42:00,55.0,53.0,30.17,East,90,0.0,0.0,94,0.00,,,0.00,,2013-03-31 12:42:00,
2013-03-31 08:53:00,56.0,55.0,30.17,East,91,0.0,0.0,95,0.00,,,0.00,,2013-03-31 12:53:00,
2013-03-31 09:02:00,59.0,57.0,30.18,East,90,0.0,1.0,93,0.00,,,0.00,,2013-03-31 13:02:00,
2013-03-31 09:12:00,59.0,57.0,30.18,East,90,0.0,1.0,93,0.00,,,0.00,,2013-03-31 13:12:00,
2013-03-31 09:22:00,61.0,58.0,30.18,ESE,110,0.0,1.0,89,0.00,,,0.00,,2013-03-31 13:22:00,
2013-03-31 09:32:00,64.0,59.0,30.18,East,91,0.0,6.0,83,0.00,,,0.00,,2013-03-31 13:32:00,
2013-03-31 09:42:00,64.0,59.0,30.18,East,91,0.0,6.0,83,0.00,,,0.00,,2013-03-31 13:42:00,
2013-03-31 09:53:00,66.0,59.0,30.17,East,82,1.0,5.0,77,0.00,,,0.00,,2013-03-31 13:53:00,
2013-03-31 10:02:00,68.0,59.0,30.18,ESE,115,1.0,4.0,74,0.00,,,0.00,,2013-03-31 14:02:00,
2013-03-31 10:12:00,68.0,59.0,30.18,ESE,115,1.0,4.0,74,0.00,,,0.00,,2013-03-31 14:12:00,
2013-03-31 10:22:00,69.0,59.0,30.18,East,89,2.0,8.0,71,0.00,,,0.00,,2013-03-31 14:22:00,
2013-03-31 10:33:00,70.0,59.0,30.18,SE,142,2.0,14.0,69,0.00,,,0.00,,2013-03-31 14:33:00,
2013-03-31 10:43:00,70.0,59.0,30.18,SE,142,2.0,14.0,69,0.00,,,0.00,,2013-03-31 14:43:00,
2013-03-31 10:52:00,70.0,59.0,30.17,SSW,210,5.0,10.0,67,0.00,,,0.00,,2013-03-31 14:52:00,
2013-03-31 11:03:00,71.0,59.0,30.17,South,180,2.0,7.0,66,0.00,,,0.00,,2013-03-31 15:03:00,
2013-03-31 11:13:00,71.0,59.0,30.17,South,180,2.0,7.0,66,0.00,,,0.00,,2013-03-31 15:13:00,
2013-03-31 11:23:00,73.0,60.0,30.17,SE,133,2.0,7.0,63,0.00,,,0.00,,2013-03-31 15:23:00,
2013-03-31 11:33:00,73.0,59.0,30.17,SW,228,1.0,9.0,62,0.00,,,0.00,,2013-03-31 15:33:00,
2013-03-31 11:43:00,73.0,59.0,30.17,SW,228,1.0,9.0,62,0.00,,,0.00,,2013-03-31 15:43:00,
2013-03-31 11:54:00,75.0,60.0,30.17,SSE,156,4.0,11.0,60,0.00,,,0.00,,2013-03-31 15:54:00,
2013-03-31 12:03:00,74.0,59.0,30.17,SSE,162,4.0,11.0,59,0.00,,,0.00,,2013-03-31 16:03:00,
2013-03-31 12:13:00,74.0,59.0,30.17,SSE,162,4.0,11.0,59,0.00,,,0.00,,2013-03-31 16:13:00,
2013-03-31 12:23:00,76.0,59.0,30.16,SSE,154,3.0,12.0,55,0.00,,,0.00,,2013-03-31 16:23:00,
2013-03-31 12:33:00,76.0,56.0,30.17,SSE,166,3.0,9.0,50,0.00,,,0.00,,2013-03-31 16:33:00,
2013-03-31 12:43:00,76.0,56.0,30.17,SSE,166,3.0,9.0,50,0.00,,,0.00,,2013-03-31 16:43:00,
2013-03-31 12:53:00,77.0,59.0,30.16,South,191,3.0,8.0,53,0.00,,,0.00,,2013-03-31 16:53:00,
2013-03-31 13:03:00,77.0,59.0,30.16,SW,232,2.0,9.0,53,0.00,,,0.00,,2013-03-31 17:03:00,
2013-03-31 13:13:00,77.0,59.0,30.16,SW,232,2.0,9.0,53,0.00,,,0.00,,2013-03-31 17:13:00,
2013-03-31 13:23:00,78.0,59.0,30.15,SE,143,4.0,10.0,52,0.00,,,0.00,,2013-03-31 17:23:00,
2013-03-31 13:32:00,78.0,59.0,30.15,SSW,212,4.0,11.0,52,0.00,,,0.00,,2013-03-31 17:32:00,
2013-03-31 13:43:00,78.0,59.0,30.15,SSW,212,4.0,11.0,52,0.00,,,0.00,,2013-03-31 17:43:00,
2013-03-31 13:52:00,77.0,59.0,30.14,SW,221,4.0,14.0,54,0.00,,,0.00,,2013-03-31 17:52:00,
2013-03-31 14:03:00,76.0,59.0,30.14,South,170,4.0,12.0,56,0.00,,,0.00,,2013-03-31 18:03:00,
2013-03-31 14:13:00,76.0,59.0,30.14,South,170,4.0,12.0,56,0.00,,,0.00,,2013-03-31 18:13:00,
2013-03-31 14:22:00,75.0,59.0,30.13,South,191,3.0,12.0,58,0.00,,,0.00,,2013-03-31 18:22:00,
2013-03-31 14:32:00,75.0,59.0,30.12,SSW,207,3.0,10.0,57,0.00,,,0.00,,2013-03-31 18:32:00,
2013-03-31 14:42:00,75.0,59.0,30.12,SSW,207,3.0,10.0,57,0.00,,,0.00,,2013-03-31 18:42:00,
2013-03-31 14:53:00,76.0,59.0,30.11,WNW,283,3.0,10.0,56,0.00,,,0.00,,2013-03-31 18:53:00,
2013-03-31 15:03:00,75.0,59.0,30.10,SW,218,5.0,12.0,58,0.00,,,0.00,,2013-03-31 19:03:00,
2013-03-31 15:12:00,75.0,59.0,30.10,SW,218,5.0,12.0,58,0.00,,,0.00,,2013-03-31 19:12:00,
2013-03-31 15:22:00,75.0,60.0,30.09,SE,139,4.0,10.0,59,0.00,,,0.00,,2013-03-31 19:22:00,
2013-03-31 15:33:00,73.0,59.0,30.09,SSE,149,5.0,14.0,61,0.00,,,0.00,,2013-03-31 19:33:00,
2013-03-31 15:43:00,73.0,59.0,30.09,SSE,149,5.0,14.0,61,0.00,,,0.00,,2013-03-31 19:43:00,
2013-03-31 15:54:00,74.0,60.0,30.08,SW,224,3.0,12.0,61,0.00,,,0.00,,2013-03-31 19:54:00,
2013-03-31 16:03:00,74.0,59.0,30.08,South,170,5.0,14.0,60,0.00,,,0.00,,2013-03-31 20:03:00,
2013-03-31 16:13:00,74.0,59.0,30.08,South,170,5.0,14.0,60,0.00,,,0.00,,2013-03-31 20:13:00,
2013-03-31 16:23:00,74.0,60.0,30.07,SSE,167,3.0,11.0,62,0.00,,,0.00,,2013-03-31 20:23:00,
2013-03-31 16:34:00,73.0,60.0,30.07,SE,125,5.0,12.0,63,0.00,,,0.00,,2013-03-31 20:34:00,
2013-03-31 16:43:00,73.0,60.0,30.07,SE,125,5.0,12.0,63,0.00,,,0.00,,2013-03-31 20:43:00,
2013-03-31 16:53:00,73.0,61.0,30.07,SSE,162,3.0,9.0,65,0.00,,,0.00,,2013-03-31 20:53:00,
2013-03-31 17:03:00,73.0,61.0,30.06,SSE,163,2.0,7.0,65,0.00,,,0.00,,2013-03-31 21:03:00,
2013-03-31 17:13:00,73.0,61.0,30.06,SSE,163,2.0,7.0,65,0.00,,,0.00,,2013-03-31 21:13:00,
2013-03-31 17:22:00,74.0,61.0,30.06,SW,232,3.0,14.0,65,0.00,,,0.00,,2013-03-31 21:22:00,
2013-03-31 17:34:00,75.0,62.0,30.06,SSE,160,5.0,14.0,64,0.00,,,0.00,,2013-03-31 21:34:00,
2013-03-31 17:43:00,75.0,62.0,30.06,SSE,160,5.0,14.0,64,0.00,,,0.00,,2013-03-31 21:43:00,
2013-03-31 17:54:00,74.0,62.0,30.05,South,169,2.0,11.0,66,0.00,,,0.00,,2013-03-31 21:54:00,
2013-03-31 18:04:00,74.0,62.0,30.06,WSW,258,3.0,10.0,67,0.00,,,0.00,,2013-03-31 22:04:00,
2013-03-31 18:13:00,74.0,62.0,30.06,WSW,258,3.0,10.0,67,0.00,,,0.00,,2013-03-31 22:13:00,
2013-03-31 18:24:00,73.0,61.0,30.05,WSW,246,3.0,12.0,67,0.00,,,0.00,,2013-03-31 22:24:00,
2013-03-31 18:33:00,74.0,62.0,30.05,WSW,256,2.0,8.0,66,0.00,,,0.00,,2013-03-31 22:33:00,
2013-03-31 18:43:00,74.0,62.0,30.05,WSW,256,2.0,8.0,66,0.00,,,0.00,,2013-03-31 22:43:00,
2013-03-31 18:53:00,73.0,62.0,30.05,SSW,197,4.0,11.0,68,0.00,,,0.00,,2013-03-31 22:53:00,
2013-03-31 19:03:00,72.0,62.0,30.05,South,176,1.0,9.0,70,0.00,,,0.00,,2013-03-31 23:03:00,
2013-03-31 19:13:00,72.0,62.0,30.05,South,176,1.0,9.0,70,0.00,,,0.00,,2013-03-31 23:13:00,
2013-03-31 19:22:00,71.0,62.0,30.06,SSE,163,1.0,9.0,72,0.00,,,0.00,,2013-03-31 23:22:00,
2013-03-31 19:32:00,70.0,61.0,30.05,SSE,165,3.0,12.0,74,0.00,,,0.00,,2013-03-31 23:32:00,
2013-03-31 19:43:00,70.0,61.0,30.05,SSE,165,3.0,12.0,74,0.00,,,0.00,,2013-03-31 23:43:00,
2013-03-31 19:53:00,69.0,61.0,30.05,South,181,3.0,9.0,76,0.00,,,0.00,,2013-03-31 23:53:00,
2013-03-31 20:02:00,69.0,62.0,30.04,WNW,282,3.0,10.0,78,0.00,,,0.00,,2013-04-01 00:02:00,
2013-03-31 20:13:00,69.0,62.0,30.04,WNW,282,3.0,10.0,78,0.00,,,0.00,,2013-04-01 00:13:00,
2013-03-31 20:22:00,69.0,62.0,30.04,SSW,197,1.0,10.0,78,0.00,,,0.00,,2013-04-01 00:22:00,
2013-03-31 20:32:00,68.0,61.0,30.04,WSW,252,3.0,9.0,78,0.00,,,0.00,,2013-04-01 00:32:00,
2013-03-31 20:43:00,68.0,61.0,30.04,WSW,252,3.0,9.0,78,0.00,,,0.00,,2013-04-01 00:43:00,
2013-03-31 20:53:00,68.0,61.0,30.03,SSE,158,0.0,4.0,79,0.00,,,0.00,,2013-04-01 00:53:00,
2013-03-31 21:03:00,68.0,62.0,30.04,SW,231,2.0,4.0,81,0.00,,,0.00,,2013-04-01 01:03:00,
2013-03-31 21:23:00,68.0,62.0,30.04,SSE,163,2.0,7.0,81,0.00,,,0.00,,2013-04-01 01:23:00,
2013-03-31 21:32:00,68.0,62.0,30.03,WSW,253,1.0,7.0,82,0.00,,,0.00,,2013-04-01 01:32:00,
2013-03-31 21:42:00,68.0,62.0,30.03,WSW,253,1.0,7.0,82,0.00,,,0.00,,2013-04-01 01:42:00,
2013-03-31 21:53:00,68.0,62.0,30.04,West,262,0.0,5.0,81,0.00,,,0.00,,2013-04-01 01:53:00,
2013-03-31 22:03:00,67.0,61.0,30.04,SSW,193,0.0,4.0,82,0.00,,,0.00,,2013-04-01 02:03:00,
2013-03-31 22:13:00,67.0,61.0,30.04,SSW,193,0.0,4.0,82,0.00,,,0.00,,2013-04-01 02:13:00,
2013-03-31 22:23:00,67.0,62.0,30.05,South,188,0.0,5.0,83,0.00,,,0.00,,2013-04-01 02:23:00,
2013-03-31 22:33:00,67.0,62.0,30.05,South,190,1.0,4.0,85,0.00,,,0.00,,2013-04-01 02:33:00,
2013-03-31 22:42:00,67.0,62.0,30.05,South,190,1.0,4.0,85,0.00,,,0.00,,2013-04-01 02:42:00,
2013-03-31 22:53:00,67.0,62.0,30.06,WSW,257,1.0,4.0,85,0.00,,,0.00,,2013-04-01 02:53:00,
2013-03-31 23:03:00,67.0,62.0,30.05,SSW,207,2.0,7.0,85,0.00,,,0.00,,2013-04-01 03:03:00,
2013-03-31 23:12:00,67.0,62.0,30.05,SSW,207,2.0,7.0,85,0.00,,,0.00,,2013-04-01 03:12:00,
2013-03-31 23:23:00,68.0,63.0,30.06,SSE,167,1.0,4.0,85,0.00,,,0.00,,2013-04-01 03:23:00,
2013-03-31 23:34:00,67.0,62.0,30.05,SW,225,2.0,6.0,85,0.00,,,0.00,,2013-04-01 03:34:00,
2013-03-31 23:43:00,67.0,62.0,30.05,SW,225,2.0,6.0,85,0.00,,,0.00,,2013-04-01 03:43:00,
2013-03-31 23:53:00,67.0,62.0,30.05,SW,218,1.0,6.0,85,0.00,,,0.00,,2013-04-01 03:53:00,